星链-5004 (STARLINK-5004 )

导读

STARLINK-5004是美国太空探索技术公司于2022年9月24日发射的星链卫星,隶属于第二代星链星座。星链计划旨在构建全球卫星互联网星座,为全球提供高速低延迟互联网服务,该卫星入轨后将与其他星链卫星协同工作,扩展星链网络的覆盖范围与服务能力。

基本信息
目录编号:
53923
目录名称:
STARLINK-5004
国际标识:
2022-119AP
轨道中心:
EARTH
卫星名称:
星链-5004
卫星全名:
星链-5004 (STARLINK-5004 )
卫星状态:
在轨 (已飞行1362 天)
发射日期:
2022-09-24 UTC
国别 :
美国 (US)
星等 :
--
轨道信息
数据来源 国际轨道数据 AOE轨道数据
星历时间 2026-06-17T05:26:02+0800
11小时前
查看轨道信息
2026-06-12T05:00:00+0800
5天前
查看轨道信息
半长轴 6917.904km 6917.899km
偏心率 0.0001028 0.0001223
轨道倾角 53.159° 53.160°
近地点辐角 87.047° 110.522°
升交点赤经 228.511° 251.070°
平近点角 273.064° 337.494°
近地点 539.055km 538.915km
远地点 540.479km 540.609km
周期 95.438分钟 95.438分钟
每日圈数 15.088326 15.088341
详细信息
固有亮度:
5
最大亮度:
2.5
卫星平台:
Starlink v1.5
覆盖范围:
全球
运营商:
太空探索技术公司
运营商所在国:
美国
制造商(研发单位):
太空探索技术公司
制造商所在国:
美国
使用方式:
暂无
卫星简介
星链(Starlink)计划是由太空探索技术公司(SpaceX)提出的一个巨型低轨卫星互联网星座项目,计划在2019年至2024年间在太空搭建由约1.2万颗卫星组成的“星链”网络,其中1584颗将部署在地球上空550千米处的近地轨道,并从2020年开始工作。该卫星仍在工作。
2D轨道图
3D轨道图
轨道高度分析图
轨道倾角分析图
轨道综合分析图
查看轨道综合分析图